Вернуться в каталог

COSMOS 1796

АктивенВоенныеLEO
NORAD 17140·PAYLOAD·🇷🇺 Russia

Запущен Nov 21, 1986 с Plesetsk Cosmodrome

Loading…

Ближайшие Пролёты (ближайшие 24 часа)

TLE

СвежийSource: Space-Track

Эпоха: Sep 14, 2026, 15:46 UTC

1 17140U 86092C   26257.65741610 -.00000014  00000-0  10440-4 0  9999
2 17140  74.0129 210.3551 0016101 304.7150 228.7838 12.49644831816357

Отслеживайте COSMOS 1796 в реальном времени с AllMySat

Download on the App Store